Regional Weather Roundup
Issued by NWS

Home | Current Version | Previous Version | Text Only | Print | Product List | Glossary On
Versions: 1 2 3 4 5 6 7 8 9 10 11 12 13 14 15 16 17 18 19 20 21 22 23 24 25 26 27 28
000
ASUS45 KREV 220410
RWRNV
NEVADA REGIONAL WEATHER ROUNDUP
NATIONAL WEATHER SERVICE RENO NV
800 PM PST TUE NOV 21 2017

NOTE: "FAIR" INDICATES FEW OR NO CLOUDS BELOW 12,000 FEET WITH NO
SIGNIFICANT WEATHER AND/OR OBSTRUCTIONS TO VISIBILITY.

NVZ001-003-004-220500-
WESTERN NEVADA

CITY           SKY/WX    TMP DP  RH WIND       PRES   REMARKS
RENO           PTCLDY    56  42  59 CALM      30.30R
CARSON CITY    FAIR      48  41  76 CALM      30.33R
MINDEN         FAIR      43  41  93 CALM      30.33R
SLIDE MTN        N/A     41  37  87 SW15        N/A
PYRAMID LAKE     N/A     54 N/A N/A NW2         N/A
FALLON         PTCLDY    53  37  54 E7        30.28R
LOVELOCK       MOCLDY    46  36  68 CALM      30.28S
HAWTHORNE      CLEAR     54  37  54 SE9       30.30R
$$

NVZ002-CAZ072-073-220500-
NORTHERN AND CENTRAL SIERRA

CITY           SKY/WX    TMP DP  RH WIND       PRES   REMARKS
S. LAKE TAHOE  PTCLDY    39  37  92 CALM      30.39R
TRUCKEE        CLEAR     37  37 100 CALM      30.38R
SQUAW VLY 8000   N/A     46  39  76 S9          N/A
SUSANVILLE     CLEAR     46  43  87 W3        30.30R
BLUE CANYON    CLEAR     57  37  47 SE3       30.35R
MAMMOTH LAKES  FAIR      39  32  76 CALM      30.48R
$$

NVZ030-031-036-220500-
NORTHERN NEVADA

CITY           SKY/WX    TMP DP  RH WIND       PRES   REMARKS
ELKO           MOCLDY    46  41  82 NE6       30.36R
WINNEMUCCA     CLOUDY    49  41  74 E7        30.30R
WENDOVER       MOCLDY    44  36  73 CALM      30.36S
$$

NVZ035-037-220500-
CENTRAL NEVADA

CITY           SKY/WX    TMP DP  RH WIND       PRES   REMARKS
ELY            CLOUDY    39  31  72 S9        30.43R
EUREKA           N/A     44  35  70 S9        30.40
$$

NVZ013-014-220500-
SOUTH CENTRAL NEVADA

CITY           SKY/WX    TMP DP  RH WIND       PRES   REMARKS
TONOPAH        MOCLDY    48  29  47 N8        30.39R
$$

NVZ017-020-022-220500-
SOUTHERN NEVADA

CITY           SKY/WX    TMP DP  RH WIND       PRES   REMARKS
LAS VEGAS      CLOUDY    65  23  20 CALM      30.22R
N. LAS VEGAS   CLOUDY    60  25  26 NW3       30.22R
NELLIS AFB     CLOUDY    58  15  18 N5        30.21R
HENDERSON      CLOUDY    59  27  29 S6        30.25R
MERCURY        MOCLDY    56  28  34 E7        30.27R
$$




USA.gov is the U.S. government's official web portal to all federal, state and local government web resources and services.